Time,TemperatureF,DewpointF,PressureIn,WindDirection,WindDirectionDegrees,WindSpeedMPH,WindSpeedGustMPH,Humidity,HourlyPrecipIn,Conditions,Clouds,dailyrainin,SoftwareType,DateUTC
2014-01-04 00:00:00,44.3,32.5,30.02,West,278,0.0,0.0,63,0.00,,,0.00,Wunderground v.1.15,2014-01-04 08:00:00,
2014-01-04 00:10:00,44.1,32.3,30.01,West,278,0.0,0.0,63,0.00,,,0.00,Wunderground v.1.15,2014-01-04 08:10:00,
2014-01-04 00:15:00,44.0,32.6,30.01,West,278,0.0,0.0,64,0.00,,,0.00,Wunderground v.1.15,2014-01-04 08:15:00,
2014-01-04 00:25:00,43.8,32.4,30.01,West,278,0.0,0.0,64,0.00,,,0.00,Wunderground v.1.15,2014-01-04 08:25:00,
2014-01-04 00:30:00,43.7,32.3,30.01,West,278,0.0,0.0,64,0.00,,,0.00,Wunderground v.1.15,2014-01-04 08:30:00,
2014-01-04 00:35:00,43.6,32.6,30.01,West,278,0.0,0.0,65,0.00,,,0.00,Wunderground v.1.15,2014-01-04 08:35:00,
2014-01-04 00:40:00,43.5,32.5,30.01,West,278,0.0,0.0,65,0.00,,,0.00,Wunderground v.1.15,2014-01-04 08:40:00,
2014-01-04 00:50:00,43.4,32.4,30.01,West,278,0.0,0.0,65,0.00,,,0.00,Wunderground v.1.15,2014-01-04 08:50:00,
2014-01-04 00:55:00,43.2,31.8,30.01,West,278,0.0,0.0,64,0.00,,,0.00,Wunderground v.1.15,2014-01-04 08:55:00,
2014-01-04 01:00:00,43.2,31.8,30.01,West,278,0.0,0.0,64,0.00,,,0.00,Wunderground v.1.15,2014-01-04 09:00:00,
2014-01-04 01:10:00,43.4,32.0,30.01,West,278,0.0,0.0,64,0.00,,,0.00,Wunderground v.1.15,2014-01-04 09:10:00,
2014-01-04 01:15:00,43.4,31.6,30.02,West,278,0.0,0.0,63,0.00,,,0.00,Wunderground v.1.15,2014-01-04 09:15:00,
2014-01-04 01:25:00,43.1,31.7,30.02,West,278,0.0,0.0,64,0.00,,,0.00,Wunderground v.1.15,2014-01-04 09:25:00,
2014-01-04 01:30:00,42.9,31.6,30.02,West,278,0.0,0.0,64,0.00,,,0.00,Wunderground v.1.15,2014-01-04 09:30:00,
2014-01-04 01:35:00,42.8,31.8,30.02,West,278,0.0,0.0,65,0.00,,,0.00,Wunderground v.1.15,2014-01-04 09:35:00,
2014-01-04 01:45:00,42.6,31.7,30.02,West,278,0.0,0.0,65,0.00,,,0.00,Wunderground v.1.15,2014-01-04 09:45:00,
2014-01-04 01:55:00,42.3,31.4,30.02,West,278,0.0,0.0,65,0.00,,,0.00,Wunderground v.1.15,2014-01-04 09:55:00,
2014-01-04 02:00:00,42.2,31.6,30.02,West,278,0.0,0.0,66,0.00,,,0.00,Wunderground v.1.15,2014-01-04 10:00:00,
2014-01-04 02:10:00,41.8,31.3,30.02,West,278,0.0,0.0,66,0.00,,,0.00,Wunderground v.1.15,2014-01-04 10:10:00,
2014-01-04 02:15:00,41.6,31.4,30.02,West,278,0.0,0.0,67,0.00,,,0.00,Wunderground v.1.15,2014-01-04 10:15:00,
2014-01-04 02:25:00,41.3,31.5,30.02,West,278,0.0,0.0,68,0.00,,,0.00,Wunderground v.1.15,2014-01-04 10:25:00,
2014-01-04 02:30:00,41.1,31.3,30.02,West,278,0.0,0.0,68,0.00,,,0.00,Wunderground v.1.15,2014-01-04 10:30:00,
2014-01-04 02:40:00,40.7,31.3,30.02,West,278,0.0,0.0,69,0.00,,,0.00,Wunderground v.1.15,2014-01-04 10:40:00,
2014-01-04 02:45:00,40.5,31.1,30.02,West,278,0.0,0.0,69,0.00,,,0.00,Wunderground v.1.15,2014-01-04 10:45:00,
2014-01-04 02:55:00,40.1,30.7,30.02,West,278,0.0,0.0,69,0.00,,,0.00,Wunderground v.1.15,2014-01-04 10:55:00,
2014-01-04 03:05:00,39.7,30.7,30.02,West,278,0.0,0.0,70,0.00,,,0.00,Wunderground v.1.15,2014-01-04 11:05:00,
2014-01-04 03:10:00,39.6,31.0,30.02,West,278,0.0,0.0,71,0.00,,,0.00,Wunderground v.1.15,2014-01-04 11:10:00,
2014-01-04 03:15:00,39.5,30.9,30.02,West,278,0.0,0.0,71,0.00,,,0.00,Wunderground v.1.15,2014-01-04 11:15:00,
2014-01-04 03:25:00,39.4,30.8,30.02,West,278,0.0,0.0,71,0.00,,,0.00,Wunderground v.1.15,2014-01-04 11:25:00,
2014-01-04 03:30:00,39.3,30.7,30.02,West,278,0.0,0.0,71,0.00,,,0.00,Wunderground v.1.15,2014-01-04 11:30:00,
2014-01-04 03:35:00,39.2,30.6,30.02,West,278,0.0,0.0,71,0.00,,,0.00,Wunderground v.1.15,2014-01-04 11:35:00,
2014-01-04 03:40:00,39.0,30.4,30.02,West,278,0.0,0.0,71,0.00,,,0.00,Wunderground v.1.15,2014-01-04 11:40:00,
2014-01-04 03:45:00,38.9,30.3,30.02,West,278,0.0,0.0,71,0.00,,,0.00,Wunderground v.1.15,2014-01-04 11:45:00,
2014-01-04 04:00:00,38.4,30.2,30.01,West,278,0.0,0.0,72,0.00,,,0.00,Wunderground v.1.15,2014-01-04 12:00:00,
2014-01-04 04:05:00,38.3,31.4,30.01,West,278,0.0,0.0,76,0.00,,,0.00,Wunderground v.1.15,2014-01-04 12:05:00,
2014-01-04 04:15:00,38.6,30.7,30.00,West,278,0.0,0.0,73,0.00,,,0.00,Wunderground v.1.15,2014-01-04 12:15:00,
2014-01-04 04:25:00,38.3,29.7,30.01,West,278,0.0,0.0,71,0.00,,,0.00,Wunderground v.1.15,2014-01-04 12:25:00,
2014-01-04 04:30:00,38.1,29.9,30.01,West,278,0.0,0.0,72,0.00,,,0.00,Wunderground v.1.15,2014-01-04 12:30:00,
2014-01-04 04:35:00,38.0,29.8,30.01,West,278,0.0,0.0,72,0.00,,,0.00,Wunderground v.1.15,2014-01-04 12:35:00,
2014-01-04 04:45:00,38.0,30.1,30.01,West,278,0.0,0.0,73,0.00,,,0.00,Wunderground v.1.15,2014-01-04 12:45:00,
2014-01-04 04:55:00,38.2,31.0,30.01,West,278,0.0,0.0,75,0.00,,,0.00,Wunderground v.1.15,2014-01-04 12:55:00,
2014-01-04 05:00:00,38.1,29.9,30.01,West,278,0.0,0.0,72,0.00,,,0.00,Wunderground v.1.15,2014-01-04 13:00:00,
2014-01-04 05:10:00,37.7,29.8,30.01,West,278,0.0,0.0,73,0.00,,,0.00,Wunderground v.1.15,2014-01-04 13:10:00,
2014-01-04 05:15:00,37.4,30.8,30.01,West,278,0.0,0.0,77,0.00,,,0.00,Wunderground v.1.15,2014-01-04 13:15:00,
2014-01-04 05:25:00,37.1,29.9,30.01,West,278,0.0,0.0,75,0.00,,,0.00,Wunderground v.1.15,2014-01-04 13:25:00,
2014-01-04 05:30:00,37.1,30.2,30.01,West,278,0.0,0.0,76,0.00,,,0.00,Wunderground v.1.15,2014-01-04 13:30:00,
2014-01-04 05:40:00,37.2,30.7,30.01,West,278,0.0,0.0,77,0.00,,,0.00,Wunderground v.1.15,2014-01-04 13:40:00,
2014-01-04 05:45:00,37.4,31.2,30.01,West,278,0.0,0.0,78,0.00,,,0.00,Wunderground v.1.15,2014-01-04 13:45:00,
2014-01-04 05:50:00,37.7,31.1,30.02,West,278,0.0,0.0,77,0.00,,,0.00,Wunderground v.1.15,2014-01-04 13:50:00,
2014-01-04 06:00:00,37.3,30.1,30.02,West,278,0.0,1.0,75,0.00,,,0.00,Wunderground v.1.15,2014-01-04 14:00:00,
2014-01-04 06:10:00,37.0,30.1,30.02,West,278,0.0,1.0,76,0.00,,,0.00,Wunderground v.1.15,2014-01-04 14:10:00,
2014-01-04 06:15:00,36.8,29.6,30.02,West,278,0.0,1.0,75,0.00,,,0.00,Wunderground v.1.15,2014-01-04 14:15:00,
2014-01-04 06:25:00,36.8,30.6,30.01,West,278,0.0,0.0,78,0.00,,,0.00,Wunderground v.1.15,2014-01-04 14:25:00,
2014-01-04 06:30:00,36.9,31.0,30.01,West,278,0.0,0.0,79,0.00,,,0.00,Wunderground v.1.15,2014-01-04 14:30:00,
2014-01-04 06:40:00,37.0,31.1,30.02,West,278,0.0,0.0,79,0.00,,,0.00,Wunderground v.1.15,2014-01-04 14:40:00,
2014-01-04 06:45:00,37.1,31.2,30.02,West,278,0.0,0.0,79,0.00,,,0.00,Wunderground v.1.15,2014-01-04 14:45:00,
2014-01-04 06:55:00,37.4,31.2,30.02,West,278,0.0,0.0,78,0.00,,,0.00,Wunderground v.1.15,2014-01-04 14:55:00,
2014-01-04 07:00:00,37.1,30.6,30.02,West,278,0.0,1.0,77,0.00,,,0.00,Wunderground v.1.15,2014-01-04 15:00:00,
2014-01-04 07:05:00,37.0,30.8,30.03,West,278,0.0,1.0,78,0.00,,,0.00,Wunderground v.1.15,2014-01-04 15:05:00,
2014-01-04 07:15:00,36.9,30.7,30.03,West,278,0.0,1.0,78,0.00,,,0.00,Wunderground v.1.15,2014-01-04 15:15:00,
2014-01-04 07:25:00,37.0,31.1,30.03,West,278,0.0,0.0,79,0.00,,,0.00,Wunderground v.1.15,2014-01-04 15:25:00,
2014-01-04 07:30:00,37.2,31.6,30.03,West,278,0.0,0.0,80,0.00,,,0.00,Wunderground v.1.15,2014-01-04 15:30:00,
2014-01-04 07:35:00,37.2,31.3,30.03,West,278,0.0,0.0,79,0.00,,,0.00,Wunderground v.1.15,2014-01-04 15:35:00,
2014-01-04 07:40:00,37.5,31.9,30.03,West,278,0.0,0.0,80,0.00,,,0.00,Wunderground v.1.15,2014-01-04 15:40:00,
2014-01-04 07:45:00,38.4,32.8,30.03,West,278,0.0,1.0,80,0.00,,,0.00,Wunderground v.1.15,2014-01-04 15:45:00,
2014-01-04 07:55:00,38.7,32.4,30.03,West,278,0.0,1.0,78,0.00,,,0.00,Wunderground v.1.15,2014-01-04 15:55:00,
2014-01-04 08:00:00,38.9,32.6,30.03,West,278,0.0,1.0,78,0.00,,,0.00,Wunderground v.1.15,2014-01-04 16:00:00,
2014-01-04 08:10:00,39.2,32.3,30.04,West,278,0.0,1.0,76,0.00,,,0.00,Wunderground v.1.15,2014-01-04 16:10:00,
2014-01-04 08:15:00,39.3,32.4,30.05,West,278,0.0,1.0,76,0.00,,,0.00,Wunderground v.1.15,2014-01-04 16:15:00,
2014-01-04 08:25:00,39.7,33.1,30.05,West,278,0.0,0.0,77,0.00,,,0.00,Wunderground v.1.15,2014-01-04 16:25:00,
2014-01-04 08:30:00,40.2,33.9,30.05,West,278,0.0,1.0,78,0.00,,,0.00,Wunderground v.1.15,2014-01-04 16:30:00,
2014-01-04 08:40:00,40.9,34.6,30.05,West,278,0.0,1.0,78,0.00,,,0.00,Wunderground v.1.15,2014-01-04 16:40:00,
2014-01-04 08:45:00,41.4,35.1,30.05,West,278,0.0,1.0,78,0.00,,,0.00,Wunderground v.1.15,2014-01-04 16:45:00,
2014-01-04 08:55:00,42.7,36.3,30.05,West,278,0.0,0.0,78,0.00,,,0.00,Wunderground v.1.15,2014-01-04 16:55:00,
2014-01-04 09:00:00,43.5,36.8,30.05,West,278,0.0,0.0,77,0.00,,,0.00,Wunderground v.1.15,2014-01-04 17:00:00,
2014-01-04 09:10:00,44.7,37.6,30.05,West,278,0.0,0.0,76,0.00,,,0.00,Wunderground v.1.15,2014-01-04 17:10:00,
2014-01-04 09:15:00,45.4,37.9,30.05,West,278,0.0,0.0,75,0.00,,,0.00,Wunderground v.1.15,2014-01-04 17:15:00,
2014-01-04 09:20:00,46.1,37.9,30.06,West,278,0.0,0.0,73,0.00,,,0.00,Wunderground v.1.15,2014-01-04 17:20:00,
2014-01-04 09:25:00,46.8,38.2,30.06,West,278,0.0,0.0,72,0.00,,,0.00,Wunderground v.1.15,2014-01-04 17:25:00,
2014-01-04 09:35:00,48.5,39.5,30.06,West,278,0.0,0.0,71,0.00,,,0.00,Wunderground v.1.15,2014-01-04 17:35:00,
2014-01-04 09:40:00,49.3,40.3,30.06,West,278,0.0,0.0,71,0.00,,,0.00,Wunderground v.1.15,2014-01-04 17:40:00,
2014-01-04 09:45:00,50.2,41.2,30.06,West,278,0.0,0.0,71,0.00,,,0.00,Wunderground v.1.15,2014-01-04 17:45:00,
2014-01-04 09:55:00,52.3,41.7,30.06,West,278,0.0,0.0,67,0.00,,,0.00,Wunderground v.1.15,2014-01-04 17:55:00,
2014-01-04 10:00:00,53.2,42.1,30.06,West,278,0.0,0.0,66,0.00,,,0.00,Wunderground v.1.15,2014-01-04 18:00:00,
2014-01-04 10:10:00,55.8,41.7,30.05,West,280,0.0,1.0,59,0.00,,,0.00,Wunderground v.1.15,2014-01-04 18:10:00,
2014-01-04 10:15:00,57.3,41.3,30.05,West,280,0.0,2.0,55,0.00,,,0.00,Wunderground v.1.15,2014-01-04 18:15:00,
2014-01-04 10:25:00,59.5,38.7,30.05,ENE,78,1.0,3.0,46,0.00,,,0.00,Wunderground v.1.15,2014-01-04 18:25:00,
2014-01-04 10:30:00,60.3,39.4,30.04,ENE,74,1.0,4.0,46,0.00,,,0.00,Wunderground v.1.15,2014-01-04 18:30:00,
2014-01-04 10:40:00,60.9,37.0,30.04,ENE,74,0.0,4.0,41,0.00,,,0.00,Wunderground v.1.15,2014-01-04 18:40:00,
2014-01-04 10:45:00,61.1,37.2,30.03,ENE,74,0.0,4.0,41,0.00,,,0.00,Wunderground v.1.15,2014-01-04 18:45:00,
2014-01-04 10:55:00,61.8,36.6,30.03,ENE,74,0.0,3.0,39,0.00,,,0.00,Wunderground v.1.15,2014-01-04 18:55:00,
2014-01-04 11:00:00,62.3,37.0,30.03,ENE,74,0.0,1.0,39,0.00,,,0.00,Wunderground v.1.15,2014-01-04 19:00:00,
2014-01-04 11:10:00,63.4,38.0,30.02,ENE,76,1.0,1.0,39,0.00,,,0.00,Wunderground v.1.15,2014-01-04 19:10:00,
2014-01-04 11:15:00,63.9,37.8,30.02,ENE,76,1.0,3.0,38,0.00,,,0.00,Wunderground v.1.15,2014-01-04 19:15:00,
2014-01-04 11:25:00,64.1,37.3,30.02,ENE,76,0.0,3.0,37,0.00,,,0.00,Wunderground v.1.15,2014-01-04 19:25:00,
2014-01-04 11:30:00,64.3,36.8,30.02,ENE,76,0.0,2.0,36,0.00,,,0.00,Wunderground v.1.15,2014-01-04 19:30:00,
2014-01-04 11:40:00,64.9,36.6,30.01,ENE,75,1.0,1.0,35,0.00,,,0.00,Wunderground v.1.15,2014-01-04 19:40:00,
2014-01-04 11:45:00,65.1,36.8,30.01,ENE,75,0.0,4.0,35,0.00,,,0.00,Wunderground v.1.15,2014-01-04 19:45:00,
2014-01-04 11:55:00,65.1,37.5,30.01,ENE,75,0.0,4.0,36,0.00,,,0.00,Wunderground v.1.15,2014-01-04 19:55:00,
2014-01-04 12:00:00,65.1,36.8,30.00,ENE,75,0.0,0.0,35,0.00,,,0.00,Wunderground v.1.15,2014-01-04 20:00:00,
2014-01-04 12:10:00,65.3,36.2,30.00,ENE,76,0.0,0.0,34,0.00,,,0.00,Wunderground v.1.15,2014-01-04 20:10:00,
2014-01-04 12:15:00,65.7,36.5,30.00,ENE,76,0.0,2.0,34,0.00,,,0.00,Wunderground v.1.15,2014-01-04 20:15:00,
2014-01-04 12:25:00,66.3,36.3,29.99,ENE,76,0.0,2.0,33,0.00,,,0.00,Wunderground v.1.15,2014-01-04 20:25:00,
2014-01-04 12:30:00,66.5,36.5,29.99,ENE,68,1.0,1.0,33,0.00,,,0.00,Wunderground v.1.15,2014-01-04 20:30:00,
2014-01-04 12:40:00,67.0,36.9,29.99,ENE,71,1.0,2.0,33,0.00,,,0.00,Wunderground v.1.15,2014-01-04 20:40:00,
2014-01-04 12:50:00,67.2,36.3,29.99,NE,42,1.0,3.0,32,0.00,,,0.00,Wunderground v.1.15,2014-01-04 20:50:00,
2014-01-04 12:55:00,67.6,36.7,29.99,ENE,63,1.0,3.0,32,0.00,,,0.00,Wunderground v.1.15,2014-01-04 20:55:00,
2014-01-04 13:00:00,67.7,36.0,29.98,ENE,63,1.0,5.0,31,0.00,,,0.00,Wunderground v.1.15,2014-01-04 21:00:00,
2014-01-04 13:10:00,67.7,35.1,29.98,ENE,64,1.0,1.0,30,0.00,,,0.00,Wunderground v.1.15,2014-01-04 21:10:00,
2014-01-04 13:15:00,67.9,34.4,29.98,ENE,64,1.0,3.0,29,0.00,,,0.00,Wunderground v.1.15,2014-01-04 21:15:00,
2014-01-04 13:20:00,67.9,34.4,29.98,ENE,64,0.0,3.0,29,0.00,,,0.00,Wunderground v.1.15,2014-01-04 21:20:00,
2014-01-04 13:25:00,68.0,35.4,29.98,ENE,64,0.0,3.0,30,0.00,,,0.00,Wunderground v.1.15,2014-01-04 21:25:00,
2014-01-04 13:30:00,68.0,35.4,29.98,ENE,64,0.0,2.0,30,0.00,,,0.00,Wunderground v.1.15,2014-01-04 21:30:00,
2014-01-04 13:40:00,68.1,35.5,29.97,ENE,64,0.0,2.0,30,0.00,,,0.00,Wunderground v.1.15,2014-01-04 21:40:00,
2014-01-04 13:45:00,68.2,35.6,29.98,ENE,64,0.0,2.0,30,0.00,,,0.00,Wunderground v.1.15,2014-01-04 21:45:00,
2014-01-04 13:55:00,68.2,35.6,29.98,ENE,64,0.0,1.0,30,0.00,,,0.00,Wunderground v.1.15,2014-01-04 21:55:00,
2014-01-04 14:00:00,68.2,36.4,29.98,ENE,64,0.0,1.0,31,0.00,,,0.00,Wunderground v.1.15,2014-01-04 22:00:00,
2014-01-04 14:10:00,67.9,43.3,29.98,NNW,333,1.0,2.0,41,0.00,,,0.00,Wunderground v.1.15,2014-01-04 22:10:00,
2014-01-04 14:15:00,67.6,43.7,29.98,NW,325,1.0,4.0,42,0.00,,,0.00,Wunderground v.1.15,2014-01-04 22:15:00,
2014-01-04 14:25:00,67.7,43.8,29.98,WNW,285,0.0,4.0,42,0.00,,,0.00,Wunderground v.1.15,2014-01-04 22:25:00,
2014-01-04 14:30:00,67.9,44.0,29.98,NW,311,1.0,1.0,42,0.00,,,0.00,Wunderground v.1.15,2014-01-04 22:30:00,
2014-01-04 14:40:00,68.0,44.7,29.98,NW,315,1.0,1.0,43,0.00,,,0.00,Wunderground v.1.15,2014-01-04 22:40:00,
2014-01-04 14:45:00,68.0,44.0,29.98,NW,315,1.0,4.0,42,0.00,,,0.00,Wunderground v.1.15,2014-01-04 22:45:00,
2014-01-04 14:55:00,67.8,44.5,29.98,NW,316,1.0,4.0,43,0.00,,,0.00,Wunderground v.1.15,2014-01-04 22:55:00,
2014-01-04 15:00:00,67.5,44.8,29.98,WSW,250,1.0,1.0,44,0.00,,,0.00,Wunderground v.1.15,2014-01-04 23:00:00,
2014-01-04 15:10:00,67.0,45.5,29.99,WNW,296,1.0,1.0,46,0.00,,,0.00,Wunderground v.1.15,2014-01-04 23:10:00,
2014-01-04 15:15:00,66.8,45.9,29.98,WNW,296,0.0,5.0,47,0.00,,,0.00,Wunderground v.1.15,2014-01-04 23:15:00,
2014-01-04 15:20:00,66.5,45.1,29.98,WNW,296,0.0,5.0,46,0.00,,,0.00,Wunderground v.1.15,2014-01-04 23:20:00,
2014-01-04 15:25:00,66.3,44.9,29.98,WNW,296,0.0,5.0,46,0.00,,,0.00,Wunderground v.1.15,2014-01-04 23:25:00,
2014-01-04 15:30:00,66.1,45.3,29.99,WNW,296,0.0,2.0,47,0.00,,,0.00,Wunderground v.1.15,2014-01-04 23:30:00,
2014-01-04 15:40:00,65.6,46.5,29.99,WNW,296,0.0,2.0,50,0.00,,,0.00,Wunderground v.1.15,2014-01-04 23:40:00,
2014-01-04 15:45:00,65.4,46.3,29.99,WNW,296,0.0,2.0,50,0.00,,,0.00,Wunderground v.1.15,2014-01-04 23:45:00,
2014-01-04 15:55:00,64.9,46.3,29.99,WNW,293,0.0,2.0,51,0.00,,,0.00,Wunderground v.1.15,2014-01-04 23:55:00,
2014-01-04 16:00:00,64.6,46.6,29.99,West,268,0.0,2.0,52,0.00,,,0.00,Wunderground v.1.15,2014-01-05 00:00:00,
2014-01-04 16:05:00,64.4,46.9,30.00,West,268,0.0,2.0,53,0.00,,,0.00,Wunderground v.1.15,2014-01-05 00:05:00,
2014-01-04 16:15:00,63.8,47.3,30.00,West,268,0.0,2.0,55,0.00,,,0.00,Wunderground v.1.15,2014-01-05 00:15:00,
2014-01-04 16:25:00,63.2,47.7,30.00,West,268,0.0,1.0,57,0.00,,,0.00,Wunderground v.1.15,2014-01-05 00:25:00,
2014-01-04 16:30:00,62.9,47.9,30.00,West,268,0.0,1.0,58,0.00,,,0.00,Wunderground v.1.15,2014-01-05 00:30:00,
2014-01-04 16:35:00,62.6,47.6,30.00,West,268,0.0,1.0,58,0.00,,,0.00,Wunderground v.1.15,2014-01-05 00:35:00,
2014-01-04 16:40:00,62.3,47.8,30.00,West,268,0.0,1.0,59,0.00,,,0.00,Wunderground v.1.15,2014-01-05 00:40:00,
2014-01-04 16:45:00,61.9,47.4,30.01,West,268,0.0,1.0,59,0.00,,,0.00,Wunderground v.1.15,2014-01-05 00:45:00,
2014-01-04 16:55:00,61.3,48.6,30.01,West,268,0.0,1.0,63,0.00,,,0.00,Wunderground v.1.15,2014-01-05 00:55:00,
2014-01-04 17:00:00,60.9,48.6,30.01,West,268,0.0,2.0,64,0.00,,,0.00,Wunderground v.1.15,2014-01-05 01:00:00,
2014-01-04 17:10:00,60.2,48.8,30.02,West,268,0.0,2.0,66,0.00,,,0.00,Wunderground v.1.15,2014-01-05 01:10:00,
2014-01-04 17:15:00,60.0,48.6,30.02,West,268,0.0,2.0,66,0.00,,,0.00,Wunderground v.1.15,2014-01-05 01:15:00,
2014-01-04 17:25:00,59.1,47.7,30.02,West,268,0.0,1.0,66,0.00,,,0.00,Wunderground v.1.15,2014-01-05 01:25:00,
2014-01-04 17:30:00,58.5,47.2,30.02,West,268,0.0,0.0,66,0.00,,,0.00,Wunderground v.1.15,2014-01-05 01:30:00,
2014-01-04 17:40:00,57.2,47.1,30.02,West,268,0.0,0.0,69,0.00,,,0.00,Wunderground v.1.15,2014-01-05 01:40:00,
2014-01-04 17:45:00,56.7,47.0,30.03,West,268,0.0,1.0,70,0.00,,,0.00,Wunderground v.1.15,2014-01-05 01:45:00,
2014-01-04 17:55:00,55.7,46.8,30.03,West,268,0.0,1.0,72,0.00,,,0.00,Wunderground v.1.15,2014-01-05 01:55:00,
2014-01-04 18:00:00,55.4,46.9,30.03,West,268,0.0,0.0,73,0.00,,,0.00,Wunderground v.1.15,2014-01-05 02:00:00,
2014-01-04 18:10:00,54.4,46.3,30.03,West,268,0.0,0.0,74,0.00,,,0.00,Wunderground v.1.15,2014-01-05 02:10:00,
2014-01-04 18:15:00,53.7,45.2,30.04,West,268,0.0,0.0,73,0.00,,,0.00,Wunderground v.1.15,2014-01-05 02:15:00,
2014-01-04 18:20:00,53.2,45.1,30.03,West,268,0.0,0.0,74,0.00,,,0.00,Wunderground v.1.15,2014-01-05 02:20:00,
2014-01-04 18:25:00,52.8,44.7,30.04,West,268,0.0,0.0,74,0.00,,,0.00,Wunderground v.1.15,2014-01-05 02:25:00,
2014-01-04 18:35:00,52.3,44.6,30.04,West,268,0.0,0.0,75,0.00,,,0.00,Wunderground v.1.15,2014-01-05 02:35:00,
2014-01-04 18:40:00,52.1,44.8,30.04,West,268,0.0,0.0,76,0.00,,,0.00,Wunderground v.1.15,2014-01-05 02:40:00,
2014-01-04 18:45:00,51.8,44.5,30.04,West,268,0.0,0.0,76,0.00,,,0.00,Wunderground v.1.15,2014-01-05 02:45:00,
2014-01-04 18:55:00,51.3,44.7,30.04,West,268,0.0,0.0,78,0.00,,,0.00,Wunderground v.1.15,2014-01-05 02:55:00,
2014-01-04 19:00:00,51.2,44.6,30.04,West,268,0.0,1.0,78,0.00,,,0.00,Wunderground v.1.15,2014-01-05 03:00:00,
2014-01-04 19:05:00,51.0,44.0,30.05,West,268,0.0,1.0,77,0.00,,,0.00,Wunderground v.1.15,2014-01-05 03:05:00,
2014-01-04 19:10:00,50.7,44.1,30.05,West,268,0.0,1.0,78,0.00,,,0.00,Wunderground v.1.15,2014-01-05 03:10:00,
2014-01-04 19:15:00,50.4,44.1,30.05,West,268,0.0,1.0,79,0.00,,,0.00,Wunderground v.1.15,2014-01-05 03:15:00,
2014-01-04 19:25:00,50.1,43.8,30.05,West,268,0.0,1.0,79,0.00,,,0.00,Wunderground v.1.15,2014-01-05 03:25:00,
2014-01-04 19:30:00,49.8,43.5,30.05,West,268,0.0,1.0,79,0.00,,,0.00,Wunderground v.1.15,2014-01-05 03:30:00,
2014-01-04 19:40:00,48.9,42.0,30.05,West,268,0.0,1.0,77,0.00,,,0.00,Wunderground v.1.15,2014-01-05 03:40:00,
2014-01-04 19:45:00,48.5,41.6,30.06,West,268,0.0,1.0,77,0.00,,,0.00,Wunderground v.1.15,2014-01-05 03:45:00,
2014-01-04 19:55:00,47.8,42.3,30.06,West,268,0.0,0.0,81,0.00,,,0.00,Wunderground v.1.15,2014-01-05 03:55:00,
2014-01-04 20:00:00,47.2,41.0,30.06,West,268,0.0,0.0,79,0.00,,,0.00,Wunderground v.1.15,2014-01-05 04:00:00,
2014-01-04 20:10:00,46.5,41.0,30.07,West,268,0.0,0.0,81,0.00,,,0.00,Wunderground v.1.15,2014-01-05 04:10:00,
2014-01-04 20:15:00,46.1,40.6,30.07,West,268,0.0,0.0,81,0.00,,,0.00,Wunderground v.1.15,2014-01-05 04:15:00,
2014-01-04 20:25:00,45.6,40.4,30.07,West,268,0.0,0.0,82,0.00,,,0.00,Wunderground v.1.15,2014-01-05 04:25:00,
2014-01-04 20:30:00,45.3,40.1,30.07,West,268,0.0,0.0,82,0.00,,,0.00,Wunderground v.1.15,2014-01-05 04:30:00,
2014-01-04 20:40:00,44.5,39.3,30.07,West,268,0.0,0.0,82,0.00,,,0.00,Wunderground v.1.15,2014-01-05 04:40:00,
2014-01-04 20:45:00,44.3,39.5,30.08,West,268,0.0,0.0,83,0.00,,,0.00,Wunderground v.1.15,2014-01-05 04:45:00,
2014-01-04 20:55:00,43.9,39.1,30.08,West,268,0.0,0.0,83,0.00,,,0.00,Wunderground v.1.15,2014-01-05 04:55:00,
2014-01-04 21:00:00,44.0,39.5,30.08,West,268,0.0,1.0,84,0.00,,,0.00,Wunderground v.1.15,2014-01-05 05:00:00,
2014-01-04 21:05:00,44.1,39.0,30.08,West,268,0.0,1.0,82,0.00,,,0.00,Wunderground v.1.15,2014-01-05 05:05:00,
2014-01-04 21:10:00,43.6,38.5,30.08,West,268,0.0,0.0,82,0.00,,,0.00,Wunderground v.1.15,2014-01-05 05:10:00,
2014-01-04 21:15:00,43.4,38.6,30.08,West,268,0.0,2.0,83,0.00,,,0.00,Wunderground v.1.15,2014-01-05 05:15:00,
2014-01-04 21:20:00,43.4,38.9,30.08,West,268,0.0,2.0,84,0.00,,,0.00,Wunderground v.1.15,2014-01-05 05:20:00,
2014-01-04 21:25:00,43.3,38.8,30.08,West,268,0.0,2.0,84,0.00,,,0.00,Wunderground v.1.15,2014-01-05 05:25:00,
2014-01-04 21:30:00,43.4,39.2,30.08,West,268,0.0,1.0,85,0.00,,,0.00,Wunderground v.1.15,2014-01-05 05:30:00,
2014-01-04 21:35:00,43.4,38.9,30.08,West,268,0.0,1.0,84,0.00,,,0.00,Wunderground v.1.15,2014-01-05 05:35:00,
2014-01-04 21:40:00,43.2,38.4,30.08,West,268,0.0,1.0,83,0.00,,,0.00,Wunderground v.1.15,2014-01-05 05:40:00,
2014-01-04 21:50:00,42.6,37.8,30.09,West,268,0.0,3.0,83,0.00,,,0.00,Wunderground v.1.15,2014-01-05 05:50:00,
2014-01-04 21:55:00,42.5,38.0,30.09,West,268,0.0,3.0,84,0.00,,,0.00,Wunderground v.1.15,2014-01-05 05:55:00,
2014-01-04 22:00:00,42.7,38.5,30.09,West,268,0.0,0.0,85,0.00,,,0.00,Wunderground v.1.15,2014-01-05 06:00:00,
2014-01-04 22:10:00,42.2,37.4,30.09,West,268,0.0,0.0,83,0.00,,,0.00,Wunderground v.1.15,2014-01-05 06:10:00,
2014-01-04 22:15:00,41.9,37.4,30.09,West,268,0.0,0.0,84,0.00,,,0.00,Wunderground v.1.15,2014-01-05 06:15:00,
2014-01-04 22:25:00,41.4,36.3,30.09,West,268,0.0,0.0,82,0.00,,,0.00,Wunderground v.1.15,2014-01-05 06:25:00,
2014-01-04 22:30:00,41.1,36.0,30.09,West,268,0.0,0.0,82,0.00,,,0.00,Wunderground v.1.15,2014-01-05 06:30:00,
2014-01-04 22:40:00,41.1,36.9,30.09,West,268,0.0,0.0,85,0.00,,,0.00,Wunderground v.1.15,2014-01-05 06:40:00,
2014-01-04 22:50:00,40.6,35.8,30.09,West,268,0.0,0.0,83,0.00,,,0.00,Wunderground v.1.15,2014-01-05 06:50:00,
2014-01-04 22:55:00,40.5,36.0,30.09,West,268,0.0,0.0,84,0.00,,,0.00,Wunderground v.1.15,2014-01-05 06:55:00,
2014-01-04 23:00:00,40.4,35.9,30.09,West,268,0.0,0.0,84,0.00,,,0.00,Wunderground v.1.15,2014-01-05 07:00:00,
2014-01-04 23:10:00,40.0,35.6,30.09,West,268,0.0,0.0,84,0.00,,,0.00,Wunderground v.1.15,2014-01-05 07:10:00,
2014-01-04 23:15:00,39.8,35.4,30.09,West,268,0.0,0.0,84,0.00,,,0.00,Wunderground v.1.15,2014-01-05 07:15:00,
2014-01-04 23:25:00,39.3,34.9,30.09,West,268,0.0,0.0,84,0.00,,,0.00,Wunderground v.1.15,2014-01-05 07:25:00,
2014-01-04 23:30:00,39.2,35.1,30.09,West,268,0.0,0.0,85,0.00,,,0.00,Wunderground v.1.15,2014-01-05 07:30:00,
2014-01-04 23:35:00,39.2,35.4,30.09,West,268,0.0,0.0,86,0.00,,,0.00,Wunderground v.1.15,2014-01-05 07:35:00,
2014-01-04 23:40:00,39.0,35.2,30.10,West,268,0.0,0.0,86,0.00,,,0.00,Wunderground v.1.15,2014-01-05 07:40:00,
2014-01-04 23:45:00,38.8,34.7,30.10,West,268,0.0,0.0,85,0.00,,,0.00,Wunderground v.1.15,2014-01-05 07:45:00,
2014-01-04 23:50:00,38.7,34.6,30.10,West,268,0.0,0.0,85,0.00,,,0.00,Wunderground v.1.15,2014-01-05 07:50:00,
2014-01-04 23:55:00,38.6,34.8,30.10,West,268,0.0,0.0,86,0.00,,,0.00,Wunderground v.1.15,2014-01-05 07:55:00,